EJM81 KFRG-KPSP

Flight info

Callsign EJM81
Flight time N/A
Altitude 47000
Route RBV Q430 AIR J80 ZANDR EMPTY J80 MCI J24 SLN J96 GCK J110 RSK J10 FLG DRK J96 PKE RDBUL1
Aircraft C750/M-SBDE3FGHRWXY/S

Departure

Time 2026-05-04 00:00
Airport Republic Airport (KFRG)

Arrival

Time N/A
Airport Palm Springs International Airport (KPSP)
Time Latitude Longitude Altitude Speed Heading
2026-05-03 23:38 40.72317 -73.42240 72 ft 0 kts 111°
2026-05-03 23:52 40.72314 -73.42227 68 ft 4 kts 109°
2026-05-03 23:53 40.72303 -73.42191 68 ft 4 kts 111°
2026-05-03 23:53 40.72294 -73.42160 70 ft 4 kts 110°
2026-05-03 23:53 40.72283 -73.42121 71 ft 5 kts 109°
2026-05-03 23:53 40.72270 -73.42066 68 ft 8 kts 108°
2026-05-03 23:54 40.72249 -73.41986 72 ft 11 kts 108°
2026-05-03 23:54 40.72222 -73.41880 69 ft 14 kts 109°
2026-05-03 23:54 40.72190 -73.41742 66 ft 17 kts 94°
2026-05-03 23:54 40.72186 -73.41592 66 ft 16 kts 90°
2026-05-03 23:55 40.72188 -73.41446 66 ft 15 kts 89°
2026-05-03 23:55 40.72193 -73.41326 64 ft 9 kts 55°
2026-05-03 23:55 40.72244 -73.41319 66 ft 8 kts 359°
2026-05-03 23:55 40.72306 -73.41320 65 ft 11 kts 359°
2026-05-03 23:56 40.72393 -73.41322 67 ft 14 kts 358°
2026-05-03 23:56 40.72499 -73.41325 72 ft 16 kts 359°
2026-05-03 23:56 40.72609 -73.41326 83 ft 15 kts 359°
2026-05-03 23:56 40.72702 -73.41328 80 ft 10 kts
2026-05-03 23:57 40.72699 -73.41280 80 ft 7 kts 134°
2026-05-03 23:57 40.72655 -73.41218 82 ft 12 kts 133°
2026-05-03 23:57 40.72585 -73.41117 73 ft 19 kts 132°
2026-05-03 23:57 40.72485 -73.40973 70 ft 23 kts 131°
2026-05-03 23:58 40.72383 -73.40825 67 ft 20 kts 131°
2026-05-03 23:58 40.72302 -73.40708 71 ft 15 kts 132°
2026-05-03 23:58 40.72234 -73.40608 70 ft 17 kts 132°
2026-05-03 23:58 40.72148 -73.40485 69 ft 12 kts 132°
2026-05-03 23:59 40.72167 -73.40407 70 ft 11 kts 44°
2026-05-03 23:59 40.72216 -73.40370 70 ft 5 kts 328°
2026-05-03 23:59 40.72307 -73.40499 64 ft 55 kts 312°
2026-05-03 23:59 40.72771 -73.41174 79 ft 134 kts 312°
2026-05-04 00:00 40.73457 -73.42162 397 ft 150 kts 311°
2026-05-04 00:00 40.74297 -73.42974 927 ft 160 kts 343°
2026-05-04 00:00 40.75463 -73.42954 1356 ft 176 kts 359°
2026-05-04 00:00 40.76769 -73.42903 1630 ft 199 kts 355°
2026-05-04 00:01 40.78196 -73.42966 2105 ft 207 kts 352°
2026-05-04 00:01 40.79621 -73.43066 2778 ft 204 kts 352°
2026-05-04 00:01 40.81068 -73.43062 3295 ft 218 kts
2026-05-04 00:01 40.82412 -73.41932 3681 ft 249 kts 45°
2026-05-04 00:02 40.83019 -73.39691 4081 ft 278 kts 84°
2026-05-04 00:02 40.82523 -73.37155 4532 ft 299 kts 120°
2026-05-04 00:02 40.81020 -73.35354 5426 ft 287 kts 155°
2026-05-04 00:02 40.79157 -73.34393 6184 ft 291 kts 166°
2026-05-04 00:03 40.77232 -73.33581 6889 ft 297 kts 167°
2026-05-04 00:03 40.75229 -73.32835 7600 ft 300 kts 176°
2026-05-04 00:03 40.73220 -73.33192 8297 ft 287 kts 212°
2026-05-04 00:03 40.71773 -73.34826 9087 ft 269 kts 242°
2026-05-04 00:04 40.70896 -73.36963 9871 ft 263 kts 255°
2026-05-04 00:04 40.70212 -73.39232 10392 ft 274 kts 255°
2026-05-04 00:04 40.69321 -73.41609 10477 ft 305 kts 248°
2026-05-04 00:04 40.68144 -73.44083 10530 ft 331 kts 244°
2026-05-04 00:05 40.66898 -73.46678 11050 ft 335 kts 245°
2026-05-04 00:05 40.65728 -73.49334 11714 ft 336 kts 246°
2026-05-04 00:05 40.64563 -73.52035 12294 ft 341 kts 245°
2026-05-04 00:05 40.63351 -73.54735 12900 ft 345 kts 244°
2026-05-04 00:06 40.62129 -73.57418 13491 ft 348 kts 244°
2026-05-04 00:06 40.60887 -73.60187 14055 ft 351 kts 244°
2026-05-04 00:06 40.59648 -73.62968 14648 ft 352 kts 244°
2026-05-04 00:06 40.58398 -73.65750 15236 ft 354 kts 244°
2026-05-04 00:07 40.57137 -73.68546 15830 ft 355 kts 244°
2026-05-04 00:07 40.55877 -73.71347 16451 ft 356 kts 244°
2026-05-04 00:07 40.54614 -73.74154 17066 ft 358 kts 244°
2026-05-04 00:07 40.53343 -73.76973 17718 ft 359 kts 244°
2026-05-04 00:08 40.52062 -73.79810 18345 ft 361 kts 244°
2026-05-04 00:08 40.50779 -73.82651 18900 ft 362 kts 244°
2026-05-04 00:08 40.49488 -73.85509 19471 ft 364 kts 244°
2026-05-04 00:08 40.48206 -73.88341 20039 ft 366 kts 244°
2026-05-04 00:09 40.46902 -73.91220 20612 ft 368 kts 244°
2026-05-04 00:09 40.45589 -73.94117 21187 ft 369 kts 244°
2026-05-04 00:09 40.44270 -73.97024 21733 ft 371 kts 244°
2026-05-04 00:09 40.42942 -73.99947 22307 ft 374 kts 244°
2026-05-04 00:10 40.41608 -74.02881 22860 ft 376 kts 244°
2026-05-04 00:10 40.40264 -74.05835 23418 ft 378 kts 244°
2026-05-04 00:10 40.38912 -74.08803 23873 ft 380 kts 244°
2026-05-04 00:10 40.37550 -74.11790 24323 ft 382 kts 244°
2026-05-04 00:11 40.36178 -74.14795 24791 ft 384 kts 244°
2026-05-04 00:11 40.34800 -74.17813 25218 ft 387 kts 244°
2026-05-04 00:11 40.33414 -74.20845 25667 ft 389 kts 243°
2026-05-04 00:11 40.32032 -74.23864 26114 ft 392 kts 244°
2026-05-04 00:12 40.30624 -74.26936 26570 ft 394 kts 244°
2026-05-04 00:12 40.29204 -74.30033 27017 ft 396 kts 244°
2026-05-04 00:12 40.27778 -74.33137 27473 ft 399 kts 243°
2026-05-04 00:12 40.26340 -74.36266 27934 ft 401 kts 244°
2026-05-04 00:13 40.24894 -74.39409 28399 ft 404 kts 244°
2026-05-04 00:13 40.23441 -74.42566 28853 ft 406 kts 244°
2026-05-04 00:13 40.22036 -74.45775 29266 ft 407 kts 248°
2026-05-04 00:13 40.20949 -74.49135 29731 ft 405 kts 254°
2026-05-04 00:14 40.20165 -74.52666 30156 ft 405 kts 260°
2026-05-04 00:14 40.19711 -74.56299 30508 ft 405 kts 266°
2026-05-04 00:14 40.19438 -74.59985 30850 ft 407 kts 266°
2026-05-04 00:14 40.19141 -74.63658 31356 ft 406 kts 265°
2026-05-04 00:15 40.18840 -74.67316 31910 ft 403 kts 266°
2026-05-04 00:15 40.18555 -74.70966 32417 ft 402 kts 266°
2026-05-04 00:15 40.18273 -74.74602 32929 ft 402 kts 265°
2026-05-04 00:15 40.17983 -74.78233 33441 ft 401 kts 265°
2026-05-04 00:16 40.17689 -74.81855 33966 ft 400 kts 265°
2026-05-04 00:16 40.17398 -74.85466 34393 ft 399 kts 265°
2026-05-04 00:16 40.17112 -74.89035 34787 ft 399 kts 265°
2026-05-04 00:16 40.16820 -74.92644 35219 ft 399 kts 265°
2026-05-04 00:17 40.16525 -74.96249 35633 ft 399 kts 265°
2026-05-04 00:17 40.16231 -74.99852 36037 ft 399 kts 264°
2026-05-04 00:17 40.15935 -75.03462 36432 ft 399 kts 264°
2026-05-04 00:17 40.15638 -75.07072 36842 ft 399 kts 264°
2026-05-04 00:18 40.15340 -75.10679 37249 ft 399 kts 264°
2026-05-04 00:18 40.15040 -75.14289 37649 ft 400 kts 264°
2026-05-04 00:18 40.14742 -75.17869 38047 ft 400 kts 264°
2026-05-04 00:18 40.14439 -75.21489 38456 ft 400 kts 264°
2026-05-04 00:19 40.14136 -75.25105 38813 ft 401 kts 263°
2026-05-04 00:19 40.13830 -75.28736 39107 ft 401 kts 263°
2026-05-04 00:19 40.13523 -75.32370 39399 ft 402 kts 263°
2026-05-04 00:19 40.13213 -75.36017 39697 ft 403 kts 263°
2026-05-04 00:20 40.12903 -75.39665 39997 ft 404 kts 263°
2026-05-04 00:20 40.12590 -75.43316 40298 ft 405 kts 263°
2026-05-04 00:20 40.12276 -75.46978 40605 ft 405 kts 263°
2026-05-04 00:20 40.11960 -75.50642 40908 ft 406 kts 263°
2026-05-04 00:21 40.11643 -75.54306 41203 ft 407 kts 263°
2026-05-04 00:21 40.11323 -75.57990 41515 ft 407 kts 263°
2026-05-04 00:21 40.11007 -75.61618 41809 ft 408 kts 263°
2026-05-04 00:21 40.10685 -75.65302 42098 ft 408 kts 263°
2026-05-04 00:22 40.10357 -75.69035 42389 ft 409 kts 263°
2026-05-04 00:22 40.10036 -75.72678 42670 ft 409 kts 263°
2026-05-04 00:22 40.09710 -75.76367 42934 ft 410 kts 263°
2026-05-04 00:22 40.09380 -75.80080 43069 ft 414 kts 263°
2026-05-04 00:23 40.08703 -75.87667 43069 ft 427 kts 263°
2026-05-04 00:23 40.08000 -75.95500 43083 ft 440 kts 263°
2026-05-04 00:24 40.07273 -76.03530 43078 ft 449 kts 263°
2026-05-04 00:24 40.06534 -76.11634 43071 ft 449 kts 263°
2026-05-04 00:25 40.05791 -76.19717 43072 ft 449 kts 263°
2026-05-04 00:25 40.05045 -76.27773 43067 ft 449 kts 263°
2026-05-04 00:26 40.04291 -76.35840 43055 ft 449 kts 263°
2026-05-04 00:26 40.03530 -76.43932 43059 ft 449 kts 263°
2026-05-04 00:27 40.02762 -76.52029 43064 ft 449 kts 263°
2026-05-04 00:27 40.01985 -76.60122 43055 ft 449 kts 263°
2026-05-04 00:28 40.01206 -76.68203 43079 ft 449 kts 263°
2026-05-04 00:28 40.00419 -76.76294 43077 ft 449 kts 263°
2026-05-04 00:29 39.99627 -76.84382 43074 ft 450 kts 263°
2026-05-04 00:29 39.98829 -76.92460 43079 ft 449 kts 263°
2026-05-04 00:30 39.98026 -77.00541 43073 ft 449 kts 263°
2026-05-04 00:30 39.97217 -77.08628 43072 ft 449 kts 263°
2026-05-04 00:31 39.96401 -77.16711 43069 ft 449 kts 263°
2026-05-04 00:31 39.95582 -77.24778 43084 ft 449 kts 263°
2026-05-04 00:32 39.95162 -77.32817 43084 ft 448 kts 272°
2026-05-04 00:32 39.95447 -77.40968 43101 ft 450 kts 271°
2026-05-04 00:33 39.95794 -77.51800 43091 ft 449 kts 272°
2026-05-04 00:34 39.96095 -77.61305 43090 ft 449 kts 272°
2026-05-04 00:34 39.96304 -77.68060 43091 ft 449 kts 272°
2026-05-04 00:35 39.96554 -77.76209 43091 ft 449 kts 271°
2026-05-04 00:35 39.96793 -77.84346 43095 ft 449 kts 271°
2026-05-04 00:36 39.97029 -77.92440 43099 ft 449 kts 271°
2026-05-04 00:36 39.97258 -78.00573 43096 ft 449 kts 271°
2026-05-04 00:37 39.97484 -78.08722 43094 ft 449 kts 271°
2026-05-04 00:37 39.97702 -78.16854 43095 ft 449 kts 271°
2026-05-04 00:38 39.97916 -78.25002 43094 ft 449 kts 271°
2026-05-04 00:38 39.98122 -78.33095 43097 ft 449 kts 271°
2026-05-04 00:39 39.98324 -78.41232 43094 ft 449 kts 271°
2026-05-04 00:39 39.98520 -78.49385 43091 ft 451 kts 271°
2026-05-04 00:40 39.98711 -78.57558 43101 ft 450 kts 271°
2026-05-04 00:40 39.98897 -78.65736 43109 ft 450 kts 271°
2026-05-04 00:41 39.99075 -78.73851 43107 ft 450 kts 271°
2026-05-04 00:41 39.99250 -78.82059 43103 ft 450 kts 271°
2026-05-04 00:42 39.99416 -78.90154 43123 ft 450 kts 271°
2026-05-04 00:42 39.99579 -78.98316 43124 ft 450 kts 271°
2026-05-04 00:43 39.99734 -79.06472 43132 ft 450 kts 271°
2026-05-04 00:43 39.99885 -79.14628 43124 ft 450 kts 271°
2026-05-04 00:44 40.00031 -79.22787 43125 ft 450 kts 271°
2026-05-04 00:44 40.00169 -79.30957 43127 ft 450 kts 271°
2026-05-04 00:45 40.00303 -79.39127 43124 ft 451 kts 271°
2026-05-04 00:45 40.00431 -79.47292 43121 ft 451 kts 271°
2026-05-04 00:46 40.00553 -79.55481 43120 ft 451 kts 271°
2026-05-04 00:46 40.00669 -79.63669 43120 ft 452 kts 271°
2026-05-04 00:47 40.00779 -79.71819 43108 ft 452 kts 271°
2026-05-04 00:47 40.00884 -79.80024 43119 ft 453 kts 271°
2026-05-04 00:48 40.00983 -79.88240 43122 ft 453 kts 271°
2026-05-04 00:48 40.01077 -79.96454 43112 ft 453 kts 271°
2026-05-04 00:49 40.01164 -80.04667 43122 ft 453 kts 270°
2026-05-04 00:49 40.01245 -80.12828 43121 ft 453 kts 270°
2026-05-04 00:50 40.01322 -80.21049 43128 ft 453 kts 270°
2026-05-04 00:50 40.01392 -80.29277 43127 ft 454 kts 270°
2026-05-04 00:51 40.01457 -80.37514 43124 ft 454 kts 270°
2026-05-04 00:51 40.01515 -80.45734 43111 ft 453 kts 270°
2026-05-04 00:52 40.01568 -80.53964 43095 ft 454 kts 270°
2026-05-04 00:52 40.01615 -80.62201 43093 ft 453 kts 270°
2026-05-04 00:53 40.01657 -80.70433 43087 ft 454 kts 270°
2026-05-04 00:53 40.01691 -80.78618 43100 ft 453 kts 270°
2026-05-04 00:54 40.01632 -80.86850 43098 ft 453 kts 269°
2026-05-04 00:54 40.01532 -80.95075 43104 ft 453 kts 269°
2026-05-04 00:55 40.01413 -81.03299 43114 ft 453 kts 269°
2026-05-04 00:55 40.01294 -81.11525 43118 ft 453 kts 269°
2026-05-04 00:56 40.01167 -81.19727 43108 ft 453 kts 269°
2026-05-04 00:56 40.01030 -81.27894 43108 ft 453 kts 269°
2026-05-04 00:57 40.00866 -81.36096 43101 ft 453 kts 269°
2026-05-04 00:57 40.00708 -81.44314 43088 ft 452 kts 269°
2026-05-04 00:58 40.00537 -81.52520 43084 ft 452 kts 269°
2026-05-04 00:58 40.00382 -81.60719 43092 ft 452 kts 269°
2026-05-04 00:59 40.00229 -81.68924 43096 ft 452 kts 269°
2026-05-04 00:59 40.00063 -81.77089 43097 ft 452 kts 269°
2026-05-04 01:00 39.99895 -81.85294 43093 ft 452 kts 269°
2026-05-04 01:00 39.99720 -81.93502 43098 ft 452 kts 269°
2026-05-04 01:01 39.99540 -82.01705 43097 ft 452 kts 269°
2026-05-04 01:01 39.99352 -82.09913 43098 ft 454 kts 269°
2026-05-04 01:02 39.99160 -82.18157 43104 ft 455 kts 269°
2026-05-04 01:02 39.98960 -82.26396 43102 ft 454 kts 269°
2026-05-04 01:03 39.98756 -82.34643 43100 ft 455 kts 269°
2026-05-04 01:03 39.98545 -82.42842 43096 ft 454 kts 268°
2026-05-04 01:04 39.98329 -82.51060 43086 ft 454 kts 268°
2026-05-04 01:04 39.98107 -82.59312 43088 ft 455 kts 268°
2026-05-04 01:05 39.97878 -82.67566 43088 ft 455 kts 268°
2026-05-04 01:05 39.97644 -82.75810 43076 ft 455 kts 268°
2026-05-04 01:06 39.97404 -82.84052 43077 ft 455 kts 268°
2026-05-04 01:06 39.97157 -82.92316 43077 ft 455 kts 268°
2026-05-04 01:07 39.96905 -83.00568 43067 ft 455 kts 268°
2026-05-04 01:07 39.96647 -83.08821 43101 ft 456 kts 268°
2026-05-04 01:08 39.96385 -83.17027 43099 ft 456 kts 268°
2026-05-04 01:08 39.96113 -83.25285 43098 ft 456 kts 268°
2026-05-04 01:09 39.95832 -83.33551 43101 ft 457 kts 268°
2026-05-04 01:09 39.95546 -83.41824 43094 ft 457 kts 268°
2026-05-04 01:10 39.95253 -83.50122 43091 ft 458 kts 268°
2026-05-04 01:10 39.94955 -83.58421 43097 ft 458 kts 268°
2026-05-04 01:11 39.94648 -83.66717 43095 ft 457 kts 268°
2026-05-04 01:11 39.94340 -83.74983 43096 ft 458 kts 268°
2026-05-04 01:12 39.94025 -83.83230 43072 ft 458 kts 268°
2026-05-04 01:12 39.93703 -83.91518 43061 ft 458 kts 268°
2026-05-04 01:13 39.93374 -83.99832 43056 ft 459 kts 268°
2026-05-04 01:13 39.93038 -84.08148 43052 ft 459 kts 267°
2026-05-04 01:14 39.92697 -84.16473 43067 ft 460 kts 267°
2026-05-04 01:14 39.92351 -84.24753 43062 ft 461 kts 267°
2026-05-04 01:15 39.91997 -84.33097 43070 ft 461 kts 267°
2026-05-04 01:15 39.91636 -84.41460 43072 ft 462 kts 267°
2026-05-04 01:16 39.91269 -84.49837 43071 ft 465 kts 267°
2026-05-04 01:16 39.90893 -84.58255 43071 ft 465 kts 267°
2026-05-04 01:17 39.90512 -84.66670 43065 ft 465 kts 267°
2026-05-04 01:17 39.90126 -84.75023 43060 ft 465 kts 267°
2026-05-04 01:18 39.89732 -84.83440 43061 ft 465 kts 267°
2026-05-04 01:18 39.89331 -84.91858 43052 ft 466 kts 267°
2026-05-04 01:19 39.88923 -85.00305 43064 ft 466 kts 267°
2026-05-04 01:19 39.88509 -85.08730 43043 ft 465 kts 268°
2026-05-04 01:20 39.88092 -85.17149 43044 ft 466 kts 268°
2026-05-04 01:20 39.87668 -85.25512 43046 ft 465 kts 268°
2026-05-04 01:21 39.87239 -85.33912 43043 ft 465 kts 268°
2026-05-04 01:21 39.86801 -85.42321 43040 ft 465 kts 268°
2026-05-04 01:22 39.86359 -85.50724 43037 ft 464 kts 268°
2026-05-04 01:22 39.85910 -85.59111 43035 ft 464 kts 268°
2026-05-04 01:23 39.85534 -85.66066 43024 ft 464 kts 268°
2026-05-04 01:23 39.85076 -85.74435 43023 ft 463 kts 268°
2026-05-04 01:24 39.84613 -85.82794 43018 ft 463 kts 268°
2026-05-04 01:24 39.84142 -85.91165 43022 ft 463 kts 268°
2026-05-04 01:25 39.83667 -85.99505 43019 ft 462 kts 268°
2026-05-04 01:25 39.83187 -86.07843 43013 ft 462 kts 268°
2026-05-04 01:26 39.82703 -86.16120 43011 ft 462 kts 268°
2026-05-04 01:26 39.82211 -86.24448 43009 ft 461 kts 268°
2026-05-04 01:27 39.81714 -86.32771 43014 ft 461 kts 268°
2026-05-04 01:27 39.81574 -86.41074 43025 ft 458 kts 274°
2026-05-04 01:28 39.81741 -86.49374 43023 ft 459 kts 273°
2026-05-04 01:28 39.81910 -86.57647 43027 ft 458 kts 274°
2026-05-04 01:29 39.82075 -86.65934 43020 ft 457 kts 273°
2026-05-04 01:29 39.82227 -86.74146 43020 ft 457 kts 273°
2026-05-04 01:30 39.82380 -86.82412 43002 ft 456 kts 273°
2026-05-04 01:30 39.82523 -86.90666 42999 ft 456 kts 273°
2026-05-04 01:31 39.82663 -86.98912 42999 ft 455 kts 273°
2026-05-04 01:31 39.82794 -87.07140 43002 ft 455 kts 273°
2026-05-04 01:32 39.82920 -87.15317 43004 ft 454 kts 273°
2026-05-04 01:32 39.83040 -87.23529 43002 ft 454 kts 273°
2026-05-04 01:33 39.83155 -87.31743 42993 ft 453 kts 273°
2026-05-04 01:33 39.83264 -87.39943 42990 ft 453 kts 273°
2026-05-04 01:34 39.83367 -87.48126 42984 ft 452 kts 273°
2026-05-04 01:34 39.83464 -87.56307 42982 ft 452 kts 273°
2026-05-04 01:35 39.83554 -87.64434 42992 ft 452 kts 273°
2026-05-04 01:35 39.83640 -87.72612 42994 ft 452 kts 272°
2026-05-04 01:36 39.83720 -87.80788 42987 ft 451 kts 272°
2026-05-04 01:36 39.83793 -87.88960 42979 ft 451 kts 272°
2026-05-04 01:37 39.83862 -87.97131 42975 ft 451 kts 272°
2026-05-04 01:37 39.83924 -88.05250 42956 ft 451 kts 272°
2026-05-04 01:38 39.83981 -88.13431 42958 ft 454 kts 272°
2026-05-04 01:38 39.84032 -88.21650 42956 ft 453 kts 272°
2026-05-04 01:39 39.84079 -88.29802 42952 ft 453 kts 272°
2026-05-04 01:39 39.84123 -88.37998 42948 ft 453 kts 272°
2026-05-04 01:40 39.84159 -88.46206 42951 ft 454 kts 272°
2026-05-04 01:40 39.84190 -88.54417 42943 ft 454 kts 272°
2026-05-04 01:41 39.84210 -88.62642 42938 ft 454 kts 272°
2026-05-04 01:41 39.84211 -88.63141 42938 ft 454 kts 272°